Latrobe, PA

4:33 PM EDT on August 17, 2019 (GMT -0400)
Arnold Palmer Regional

Weather History for KLBE - May, 2019

Change the Weather History Date:

Sunday, May 5, 2019

  Actual Average Record
Temperature  
Mean Temperature 58 °F -  
Max Temperature 59 °F 69 °F 84 °F (1999)
Min Temperature 57 °F 45 °F 32 °F (2005)
Degree Days  
Heating Degree Days 7    
Growing Degree Days 8 (Base 50)    
Moisture  
Dew Point 58 °F    
Average Humidity 100    
Maximum Humidity 100    
Minimum Humidity 100    
Precipitation  
Precipitation 0.00 in - - ()
Sea Level Pressure  
Sea Level Pressure 29.81 in    
Wind  
Wind Speed 2 mph (North)    
Max Wind Speed 9 mph    
Max Gust Speed -    
Visibility 7 miles    
Events Rain    
Averages and records for this station are not official NWS values.
T = Trace of Precipitation, MM = Missing Value Source: NWS Daily Summary

Daily Weather History Graph

Daily Weather History Graph

Search for Another Location

Airport or City:

Astronomy

May. 05, 2019 Rise Set
Actual Time 6:12 AM EDT 8:16 PM EDT
Civil Twilight 5:42 AM EDT 8:46 PM EDT
Nautical Twilight 5:06 AM EDT 9:23 PM EDT
Astronomical Twilight 4:26 AM EDT 10:03 PM EDT
Moon 6:56 AM EDT (5/5) 9:08 PM EDT (5/5)
Length of Visible Light 15h 03m
Length of Day
14h 04m
New Moon, 1% of the Moon is Illuminated
May 5
New Moon
May 11
First Quarter
May 18
Full
May 26
Last Quarter
Jun 3
New

Hourly Weather History & Observations

Time (EDT) Temp. Dew Point Humidity Pressure Visibility Wind Dir Wind Speed Gust Speed Precip Events Conditions
12:15 AM 59.0 °F 59.0 °F 100% 29.84 in 10.0 mi Calm Calm - N/A   Light Drizzle
12:35 AM 59.0 °F 59.0 °F 100% 29.83 in 4.0 mi NNE 4.6 mph - N/A Rain Light Rain
12:55 AM 59.0 °F 59.0 °F 100% 29.83 in 4.0 mi Calm Calm - N/A Rain Light Rain
1:15 AM 59.0 °F 59.0 °F 100% 29.83 in 5.0 mi Calm Calm - N/A Rain Light Rain
1:35 AM 59.0 °F 59.0 °F 100% 29.82 in 6.0 mi Calm Calm - N/A   Overcast
1:55 AM 59.0 °F 59.0 °F 100% 29.81 in 9.0 mi North 4.6 mph - N/A   Overcast
2:15 AM 59.0 °F 59.0 °F 100% 29.81 in 8.0 mi North 3.5 mph - N/A   Overcast
2:35 AM - - N/A% 29.80 in 7.0 mi North 3.5 mph - N/A   Overcast
2:55 AM 57.2 °F 57.2 °F 100% 29.79 in 7.0 mi Calm Calm - N/A   Light Drizzle
3:15 AM 57.2 °F 57.2 °F 100% 29.80 in 7.0 mi North 3.5 mph - N/A   Light Drizzle
3:35 AM 57.2 °F 57.2 °F 100% 29.79 in 6.0 mi North 3.5 mph - N/A Rain Light Rain
3:55 AM 57.2 °F 57.2 °F 100% 29.79 in 7.0 mi North 3.5 mph - N/A   Light Drizzle
4:15 AM 57.2 °F 57.2 °F 100% 29.79 in 8.0 mi North 4.6 mph - N/A Rain Light Rain
4:35 AM 57.2 °F 57.2 °F 100% 29.78 in 9.0 mi North 4.6 mph - N/A   Light Drizzle
4:55 AM 57.2 °F 57.2 °F 100% 29.78 in 10.0 mi North 4.6 mph - N/A   Light Drizzle
5:15 AM 57.2 °F 57.2 °F 100% 29.77 in 10.0 mi Calm Calm - N/A Rain Light Rain
5:35 AM 57.2 °F 57.2 °F 100% 29.77 in 7.0 mi Calm Calm - N/A Rain Light Rain
5:55 AM 57.2 °F 57.2 °F 100% 29.77 in 7.0 mi NNE 3.5 mph - N/A Rain Light Rain
6:51 AM 57.2 °F 57.2 °F 100% 29.77 in 6.0 mi North 5.8 mph - N/A Rain Light Rain
7:51 AM 57.2 °F 57.2 °F 100% 29.77 in 5.0 mi Calm Calm - N/A Rain Light Rain
8:51 AM 57.2 °F 57.2 °F 100% 29.77 in 7.0 mi Calm Calm - N/A Rain Light Rain
9:51 AM 57.2 °F 57.2 °F 100% 29.77 in 7.0 mi NNW 8.1 mph - N/A Rain Light Rain
10:51 AM 59.0 °F 59.0 °F 100% 29.78 in 7.0 mi Calm Calm - N/A Rain Light Rain
11:51 AM 59.0 °F 59.0 °F 100% 29.78 in 8.0 mi North 8.1 mph - N/A Rain Light Rain
12:53 PM 57.2 °F 57.2 °F 100% 29.78 in 5.0 mi North 6.9 mph - N/A Rain Light Rain
1:53 PM 57.2 °F 57.2 °F 100% 29.79 in 5.0 mi North 9.2 mph - N/A Rain Light Rain
2:53 PM 57.2 °F 57.2 °F 100% 29.79 in 5.0 mi North 5.8 mph - N/A Rain Light Rain
3:53 PM 57.2 °F 57.2 °F 100% 29.79 in 1.5 mi NNW 4.6 mph - N/A Rain Light Rain
4:50 PM 57.2 °F 57.2 °F 100% 29.80 in 2.0 mi North 4.6 mph - N/A Rain Light Rain
5:50 PM 57.2 °F 57.2 °F 100% 29.81 in 8.0 mi North 4.6 mph - N/A   Overcast
6:50 PM 59.0 °F 59.0 °F 100% 29.82 in 8.0 mi NNE 4.6 mph - N/A   Overcast
7:50 PM 57.2 °F 57.2 °F 100% 29.84 in 3.0 mi NE 4.6 mph - N/A Rain Light Rain
8:50 PM 57.2 °F 57.2 °F 100% 29.86 in 8.0 mi Calm Calm - N/A   Mostly Cloudy
9:50 PM 57.2 °F 57.2 °F 100% 29.87 in 8.0 mi Calm Calm - N/A   Overcast
10:15 PM 57.2 °F 57.2 °F 100% 29.89 in 10.0 mi Calm Calm - N/A   Overcast
10:35 PM 57.2 °F 57.2 °F 100% 29.89 in 10.0 mi Calm Calm - N/A   Overcast
10:55 PM 57.2 °F 57.2 °F 100% 29.89 in 10.0 mi Calm Calm - N/A   Overcast
11:15 PM 57.2 °F 57.2 °F 100% 29.88 in 10.0 mi Calm Calm - N/A   Mostly Cloudy
11:35 PM 57.2 °F 57.2 °F 100% 29.88 in 10.0 mi Calm Calm - N/A   Mostly Cloudy
11:55 PM 57.2 °F 57.2 °F 100% 29.89 in 1.2 mi SW 4.6 mph - N/A   Overcast